| time (UTC) | temp C | wind direction | speed KPH | gust KPH | rain 1hr cm | rain 24hr cm | rain mn cm | humidity % | barometer mb |
| 20260902153013 | 29 | 84 | 1.6 | 8.0 | 0.00 | 0.00 | 0.00 | 54 | 1015.8 |
| 20260902151600 | 28 | 76 | 1.6 | 4.8 | 0.00 | 0.00 | 0.00 | 57 | 1016.1 |
| 20260902150040 | 28 | 42 | 1.6 | 6.4 | 0.00 | 0.00 | 0.00 | 57 | 1016.1 |
| 20260902144523 | 28 | 51 | 1.6 | 8.0 | 0.00 | 0.00 | 0.00 | 56 | 1016.2 |
| 20260902143003 | 28 | 141 | 1.6 | 8.0 | 0.00 | 0.00 | 0.00 | 55 | 1016.2 |
| 20260902141552 | 29 | 35 | 1.6 | 8.0 | 0.00 | 0.00 | 0.00 | 54 | 1016.3 |
| 20260902140027 | 30 | 129 | 1.6 | 8.0 | 0.00 | 0.00 | 0.00 | 56 | 1016.4 |
| 20260902134509 | 30 | 330 | 0.0 | 4.8 | 0.00 | 0.00 | 0.00 | 54 | 1016.5 |
| 20260902133051 | 30 | 4 | 0.0 | 3.2 | 0.00 | 0.00 | 0.00 | 54 | 1016.7 |
| 20260902131535 | 30 | 232 | 0.0 | 4.8 | 0.00 | 0.00 | 0.00 | 56 | 1016.7 |
| 20260902130018 | 30 | 40 | 0.0 | 0.0 | 0.00 | 0.00 | 0.00 | 56 | 1016.9 |
| 20260902124501 | 30 | 98 | 0.0 | 0.0 | 0.00 | 0.00 | 0.00 | 53 | 1017.0 |
| 20260902123049 | 30 | 139 | 0.0 | 0.0 | 0.00 | 0.00 | 0.00 | 55 | 1017.3 |
| 20260902121528 | 29 | 34 | 0.0 | 0.0 | 0.00 | 0.00 | 0.00 | 59 | 1017.6 |
| 20260902120007 | 29 | 103 | 0.0 | 0.0 | 0.00 | 0.00 | 0.00 | 56 | 1017.8 |
| 20260902114549 | 28 | 290 | 0.0 | 0.0 | 0.00 | 0.00 | 0.00 | 55 | 1018.0 |
| 20260902113033 | 28 | 133 | 0.0 | 0.0 | 0.00 | 0.00 | 0.00 | 58 | 1018.1 |
| 20260902111512 | 28 | 108 | 0.0 | 0.0 | 0.00 | 0.00 | 0.00 | 57 | 1018.5 |
| 20260902110058 | 28 | 168 | 0.0 | 0.0 | 0.00 | 0.00 | 0.00 | 57 | 1018.7 |
| 20260902104541 | 27 | 113 | 0.0 | 0.0 | 0.00 | 0.00 | 0.00 | 55 | 1018.7 |
| 20260902103022 | 26 | 141 | 0.0 | 0.0 | 0.00 | 0.00 | 0.00 | 57 | 1018.9 |
| 20260902101504 | 26 | 142 | 0.0 | 0.0 | 0.00 | 0.00 | 0.00 | 59 | 1019.1 |
| 20260902100045 | 26 | 141 | 0.0 | 0.0 | 0.00 | 0.00 | 0.00 | 57 | 1019.3 |
| 20260902094528 | 25 | 142 | 0.0 | 0.0 | 0.00 | 0.00 | 0.00 | 59 | 1019.3 |
| 20260902093009 | 25 | 141 | 0.0 | 0.0 | 0.00 | 0.00 | 0.00 | 63 | 1019.4 |
| 20260902091554 | 24 | 151 | 0.0 | 0.0 | 0.00 | 0.00 | 0.00 | 65 | 1019.5 |
| 20260902090035 | 23 | 151 | 0.0 | 0.0 | 0.00 | 0.00 | 0.00 | 68 | 1019.6 |
| 20260902084524 | 23 | 148 | 0.0 | 0.0 | 0.00 | 0.00 | 0.00 | 72 | 1019.8 |
| 20260902083105 | 23 | 147 | 0.0 | 0.0 | 0.00 | 0.00 | 0.00 | 70 | 1019.5 |
| 20260902081544 | 22 | 146 | 0.0 | 0.0 | 0.00 | 0.00 | 0.00 | 74 | 1019.7 |
| 20260902080021 | 21 | 154 | 0.0 | 0.0 | 0.00 | 0.00 | 0.00 | 75 | 1019.7 |
| 20260902074504 | 21 | 154 | 0.0 | 0.0 | 0.00 | 0.00 | 0.00 | 77 | 1019.4 |
| 20260902073044 | 21 | 154 | 0.0 | 0.0 | 0.00 | 0.00 | 0.00 | 78 | 1019.5 |
| 20260902071516 | 20 | 154 | 0.0 | 0.0 | 0.00 | 0.00 | 0.00 | 78 | 1019.6 |
| 20260902064545 | 20 | 154 | 0.0 | 0.0 | 0.00 | 0.00 | 0.00 | 82 | 1019.5 |
| 20260902063052 | 18 | 154 | 0.0 | 0.0 | 0.00 | 0.00 | 0.00 | 85 | 1019.6 |
| 20260902061503 | 18 | 154 | 0.0 | 0.0 | 0.00 | 0.00 | 0.00 | 87 | 1019.7 |
| 20260902060056 | 18 | 154 | 0.0 | 0.0 | 0.00 | 0.00 | 0.00 | 87 | 1019.7 |
| 20260902054527 | 18 | 154 | 0.0 | 0.0 | 0.00 | 0.00 | 0.00 | 88 | 1019.5 |
| 20260902053007 | 18 | 154 | 0.0 | 0.0 | 0.00 | 0.00 | 0.00 | 88 | 1019.4 |
| 20260902051557 | 18 | 154 | 0.0 | 0.0 | 0.00 | 0.00 | 0.00 | 88 | 1019.4 |
| 20260902050032 | 18 | 154 | 0.0 | 0.0 | 0.00 | 0.00 | 0.00 | 87 | 1019.4 |
| 20260902044513 | 18 | 154 | 0.0 | 0.0 | 0.00 | 0.00 | 0.00 | 87 | 1019.2 |
| 20260902043107 | 18 | 154 | 0.0 | 0.0 | 0.00 | 0.00 | 0.00 | 87 | 1019.1 |
| 20260902041541 | 18 | 154 | 0.0 | 0.0 | 0.00 | 0.00 | 0.00 | 87 | 1019.0 |
| 20260902040100 | 18 | 154 | 0.0 | 0.0 | 0.00 | 0.00 | 0.00 | 87 | 1019.0 |
| 20260902034535 | 18 | 154 | 0.0 | 0.0 | 0.00 | 0.00 | 0.00 | 86 | 1018.9 |
| 20260902033012 | 18 | 154 | 0.0 | 0.0 | 0.00 | 0.00 | 0.00 | 86 | 1018.9 |
| 20260902031604 | 18 | 154 | 0.0 | 0.0 | 0.00 | 0.00 | 0.00 | 85 | 1018.9 |
| 20260902030034 | 19 | 154 | 0.0 | 0.0 | 0.00 | 0.00 | 0.00 | 86 | 1018.9 |
| 20260902024519 | 19 | 154 | 0.0 | 0.0 | 0.00 | 0.00 | 0.00 | 86 | 1018.9 |
| 20260902023104 | 19 | 154 | 0.0 | 0.0 | 0.00 | 0.00 | 0.00 | 86 | 1018.9 |
| 20260902021548 | 19 | 154 | 0.0 | 0.0 | 0.00 | 0.00 | 0.00 | 86 | 1018.9 |
| 20260902020030 | 19 | 154 | 0.0 | 0.0 | 0.00 | 0.00 | 0.00 | 85 | 1018.9 |
| 20260902014512 | 20 | 154 | 0.0 | 0.0 | 0.00 | 0.00 | 0.00 | 85 | 1018.8 |
| 20260902013055 | 20 | 154 | 0.0 | 0.0 | 0.00 | 0.00 | 0.00 | 85 | 1018.8 |
| 20260902011528 | 20 | 154 | 0.0 | 0.0 | 0.00 | 0.00 | 0.00 | 85 | 1018.8 |
| 20260902010009 | 19 | 154 | 0.0 | 0.0 | 0.00 | 0.00 | 0.00 | 85 | 1018.9 |
| 20260902004600 | 20 | 154 | 0.0 | 0.0 | 0.00 | 0.00 | 0.00 | 85 | 1018.9 |
| 20260902003110 | 20 | 154 | 0.0 | 0.0 | 0.00 | 0.00 | 0.00 | 85 | 1018.9 |
| 20260902001514 | 20 | 154 | 0.0 | 0.0 | 0.00 | 0.00 | 0.00 | 85 | 1018.9 |
| 20260902000103 | 20 | 154 | 0.0 | 0.0 | 0.00 | 0.00 | 0.00 | 84 | 1018.8 |
| 20260901234537 | 20 | 154 | 0.0 | 0.0 | 0.00 | 0.00 | 0.00 | 84 | 1018.7 |
| 20260901233015 | 20 | 154 | 0.0 | 0.0 | 0.00 | 0.00 | 0.00 | 84 | 1018.7 |
| 20260901231603 | 20 | 154 | 0.0 | 1.6 | 0.00 | 0.00 | 0.00 | 84 | 1018.8 |
| 20260901230040 | 20 | 154 | 0.0 | 0.0 | 0.00 | 0.00 | 0.00 | 83 | 1018.9 |
| 20260901224525 | 21 | 154 | 0.0 | 0.0 | 0.00 | 0.00 | 0.00 | 82 | 1018.9 |
| 20260901223007 | 21 | 154 | 0.0 | 0.0 | 0.00 | 0.00 | 0.00 | 81 | 1018.8 |
| 20260901221556 | 21 | 154 | 0.0 | 0.0 | 0.00 | 0.00 | 0.00 | 81 | 1018.9 |
| 20260901220040 | 21 | 154 | 0.0 | 0.0 | 0.00 | 0.00 | 0.00 | 80 | 1018.7 |
| 20260901214510 | 21 | 154 | 0.0 | 0.0 | 0.00 | 0.00 | 0.00 | 79 | 1018.7 |
| 20260901213102 | 22 | 154 | 0.0 | 0.0 | 0.00 | 0.00 | 0.00 | 78 | 1018.7 |
| 20260901211540 | 22 | 154 | 0.0 | 1.6 | 0.00 | 0.00 | 0.00 | 77 | 1018.6 |
| 20260901210015 | 22 | 154 | 0.0 | 0.0 | 0.00 | 0.00 | 0.00 | 76 | 1018.6 |
| 20260901204558 | 22 | 154 | 0.0 | 3.2 | 0.00 | 0.00 | 0.00 | 75 | 1018.5 |
| 20260901203039 | 23 | 154 | 0.0 | 0.0 | 0.00 | 0.00 | 0.00 | 74 | 1018.3 |
| 20260901201514 | 23 | 154 | 0.0 | 1.6 | 0.00 | 0.00 | 0.00 | 74 | 1018.3 |
| 20260901200056 | 23 | 154 | 0.0 | 11.3 | 0.00 | 0.00 | 0.00 | 73 | 1018.1 |
| 20260901194526 | 23 | 148 | 4.8 | 12.9 | 0.00 | 0.00 | 0.00 | 73 | 1017.9 |
| 20260901193007 | 23 | 143 | 3.2 | 11.3 | 0.00 | 0.00 | 0.00 | 74 | 1017.7 |
| 20260901191600 | 23 | 156 | 1.6 | 4.8 | 0.00 | 0.00 | 0.00 | 72 | 1017.5 |
| 20260901190028 | 24 | 146 | 3.2 | 6.4 | 0.00 | 0.00 | 0.00 | 71 | 1017.3 |
| 20260901184511 | 25 | 13 | 0.0 | 3.2 | 0.00 | 0.00 | 0.00 | 69 | 1017.2 |
| 20260901183050 | 26 | 11 | 0.0 | 3.2 | 0.00 | 0.00 | 0.00 | 67 | 1017.0 |
| 20260901181537 | 26 | 11 | 0.0 | 1.6 | 0.00 | 0.00 | 0.00 | 66 | 1016.7 |
| 20260901180011 | 26 | 11 | 0.0 | 0.0 | 0.00 | 0.00 | 0.00 | 64 | 1016.6 |
| 20260901174557 | 27 | 11 | 0.0 | 6.4 | 0.00 | 0.00 | 0.00 | 63 | 1016.6 |
| 20260901173035 | 27 | 351 | 0.0 | 4.8 | 0.00 | 0.00 | 0.00 | 62 | 1016.3 |
| 20260901171508 | 27 | 5 | 1.6 | 6.4 | 0.00 | 0.00 | 0.00 | 61 | 1016.2 |
| 20260901170057 | 27 | 354 | 1.6 | 6.4 | 0.00 | 0.00 | 0.00 | 60 | 1016.3 |
| 20260901164530 | 27 | 29 | 3.2 | 9.7 | 0.00 | 0.00 | 0.00 | 59 | 1016.2 |
| 20260901163009 | 28 | 44 | 1.6 | 8.0 | 0.00 | 0.00 | 0.00 | 58 | 1016.3 |
| 20260901161553 | 28 | 90 | 1.6 | 12.9 | 0.00 | 0.00 | 0.00 | 55 | 1016.1 |
| 20260901160030 | 29 | 63 | 0.0 | 6.4 | 0.00 | 0.00 | 0.00 | 53 | 1016.1 |
| 20260901154504 | 29 | 81 | 0.0 | 8.0 | 0.00 | 0.00 | 0.00 | 51 | 1016.2 |